Weather History for KD07 - February, 2013

Change the Weather History Date:

Wednesday, February 27, 2013

  Actual Average Record
Temperature  
Mean Temperature 28 °F 27 °F  
Max Temperature 31 °F 37 °F 53 °F (2004)
Min Temperature 24 °F 17 °F -8 °F (2001)
Degree Days  
Heating Degree Days 37 38  
Month to date heating degree days 993 1122  
Since 1 July heating degree days 5309 5651  
Cooling Degree Days 0 0  
Month to date cooling degree days 0 0  
Year to date cooling degree days 0 0  
Moisture  
Dew Point 22 °F    
Average Humidity 77    
Maximum Humidity 84    
Minimum Humidity 69    
Precipitation  
Precipitation 0.00 in 0.01 in 0.18 in (2009)
Month to date precipitation 0.19 0.41  
Year to date precipitation 0.57 0.61  
Sea Level Pressure  
Sea Level Pressure 30.27 in    
Wind  
Wind Speed 15 mph (NNW)    
Max Wind Speed 23 mph    
Max Gust Speed 29 mph    
T = Trace of Precipitation, MM = Missing Value Source: NWS Daily Summary

Daily Weather History Graph

Daily Weather History Graph

Search for Another Location

Airport or City:

Trip Planner

Search our weather history database for the weather conditions in past years. The results will help you decide how hot, cold, wet, or windy it might be!

Date:

Astronomy

Feb. 27, 2013 Rise Set
Actual Time 6:28 AM MST 5:33 PM MST
Civil Twilight 5:59 AM MST 6:02 PM MST
Nautical Twilight 5:25 AM MST 6:36 PM MST
Astronomical Twilight 4:51 AM MST 7:10 PM MST
Moon 8:05 PM MST (2/27) 6:57 AM MST (2/27)
Length of Visible Light 12h 03m
Length of Day
11h 04m
Waning Gibbous, 96% of the Moon is Illuminated
Feb 27
Waning Gibbous
Mar 4
Last Quarter
Mar 11
New
Mar 19
First Quarter
Mar 27
Full

Hourly Weather History & Observations

Time (MST) Temp. Windchill Dew Point Humidity Pressure Visibility Wind Dir Wind Speed Gust Speed Precip Events Conditions
12:56 AM 30.0 °F 20.0 °F 24.1 °F 79% 30.17 in - NW 12.7 mph - N/A   Unknown
1:56 AM 28.9 °F 18.2 °F 23.0 °F 78% 30.17 in - NW 13.8 mph - N/A   Unknown
2:56 AM 28.9 °F 17.7 °F 23.0 °F 78% 30.16 in - NW 15.0 mph - N/A   Unknown
3:56 AM 30.0 °F 17.9 °F 21.9 °F 72% 30.17 in - NNW 18.4 mph - N/A   Unknown
4:56 AM 30.0 °F 19.1 °F 21.9 °F 72% 30.20 in - NW 15.0 mph - N/A   Unknown
5:56 AM 30.0 °F 18.3 °F 21.9 °F 72% 30.22 in - NW 17.3 mph - N/A   Unknown
6:56 AM 28.9 °F 17.7 °F 21.9 °F 75% 30.23 in - NW 15.0 mph 24.2 mph N/A   Unknown
7:56 AM 28.0 °F 14.3 °F 21.9 °F 78% 30.26 in - NNW 21.9 mph 27.6 mph N/A   Unknown
8:56 AM 28.0 °F 15.3 °F 21.9 °F 78% 30.28 in - NNW 18.4 mph - N/A   Unknown
9:56 AM 28.9 °F 16.5 °F 21.0 °F 72% 30.28 in - NW 18.4 mph - N/A   Unknown
10:56 AM 30.0 °F 17.5 °F 21.0 °F 69% 30.27 in - NNW 19.6 mph 27.6 mph N/A   Unknown
11:56 AM 30.0 °F 17.9 °F 21.9 °F 72% 30.29 in - NNW 18.4 mph - N/A   Unknown
12:56 PM 30.9 °F 19.8 °F 21.9 °F 69% 30.27 in - NNW 16.1 mph - N/A   Unknown
1:56 PM 30.0 °F 18.3 °F 23.0 °F 75% 30.27 in - North 17.3 mph - N/A   Unknown
2:56 PM 30.0 °F 18.3 °F 23.0 °F 75% 30.29 in - NNW 17.3 mph 23.0 mph N/A   Unknown
3:56 PM 30.0 °F 18.7 °F 21.9 °F 72% 30.30 in - North 16.1 mph - N/A   Unknown
4:56 PM 28.0 °F 17.0 °F 21.9 °F 78% 30.31 in - NNW 13.8 mph - N/A   Unknown
5:56 PM 28.0 °F - 21.9 °F 78% 30.32 in - North - - N/A   Unknown
6:56 PM 27.0 °F 17.3 °F 23.0 °F 85% 30.32 in - North 10.4 mph - N/A   Unknown
7:56 PM 27.0 °F 14.7 °F 21.0 °F 78% 30.32 in - North 16.1 mph - N/A   Unknown
8:56 PM 26.1 °F 14.5 °F 21.0 °F 81% 30.32 in - North 13.8 mph - N/A   Unknown
9:56 PM 24.1 °F 13.7 °F 19.9 °F 84% 30.32 in - North 10.4 mph - N/A   Unknown
10:56 PM 26.1 °F 16.8 °F 21.0 °F 81% 30.32 in - North 9.2 mph - N/A   Unknown
11:56 PM 26.1 °F 19.4 °F 21.0 °F 81% 30.32 in - NNW 5.8 mph - N/A   Unknown